WMT7UX LROP-LFBD

Flight info

Callsign WMT7UX
Flight time 3h 7m
Altitude 38000
Route SOKRU DCT OXDOC DCT ENIMA DCT ERUKO DCT GESBA DCT MOPUG DCT MAVIR DCT KOPRY DCT RIFEN/N0444F370 DCT RONOP/N0446F380 DCT GIGUS DCT BALSI DCT GIPNO DCT RUSIT DCT TIS DCT VALKU/N0443F370 DCT PECNO DCT LMG
Aircraft A320/M-SDE1E2E3FGIJ1J4RWXY/LB1

Departure

Time 2026-05-06 11:15
Airport Bucharest Henri Coandă International Airport (LROP)

Arrival

Time 2026-05-06 14:22
Airport Bordeaux–Mérignac Airport (LFBD)
Time Latitude Longitude Altitude Speed Heading
2026-05-06 10:53 44.56867 26.08900 306 ft 0 kts 174°
2026-05-06 11:07 44.56882 26.08897 306 ft 2 kts 171°
2026-05-06 11:07 44.56897 26.08894 306 ft 2 kts 172°
2026-05-06 11:08 44.56913 26.08891 307 ft 2 kts 172°
2026-05-06 11:08 44.56928 26.08888 307 ft 2 kts 172°
2026-05-06 11:08 44.56939 26.08886 307 ft 0 kts 170°
2026-05-06 11:08 44.56943 26.08887 307 ft 0 kts 237°
2026-05-06 11:09 44.56945 26.08893 307 ft 1 kts 283°
2026-05-06 11:09 44.56944 26.08901 307 ft 0 kts 275°
2026-05-06 11:11 44.56943 26.08872 307 ft 6 kts 263°
2026-05-06 11:11 44.56936 26.08797 307 ft 2 kts 263°
2026-05-06 11:11 44.56930 26.08737 308 ft 9 kts 263°
2026-05-06 11:12 44.56923 26.08646 309 ft 9 kts 264°
2026-05-06 11:12 44.56945 26.08558 309 ft 12 kts 315°
2026-05-06 11:12 44.57040 26.08527 311 ft 15 kts 358°
2026-05-06 11:12 44.57148 26.08517 313 ft 14 kts 353°
2026-05-06 11:13 44.57258 26.08499 314 ft 17 kts 354°
2026-05-06 11:13 44.57383 26.08482 314 ft 17 kts 355°
2026-05-06 11:13 44.57509 26.08464 314 ft 17 kts 348°
2026-05-06 11:13 44.57629 26.08442 314 ft 14 kts 354°
2026-05-06 11:14 44.57666 26.08494 314 ft 8 kts 81°
2026-05-06 11:14 44.57686 26.08778 314 ft 64 kts 84°
2026-05-06 11:14 44.57764 26.09773 317 ft 133 kts 85°
2026-05-06 11:14 44.57886 26.11308 641 ft 160 kts 86°
2026-05-06 11:15 44.58009 26.12902 1310 ft 163 kts 86°
2026-05-06 11:15 44.58128 26.14503 1987 ft 164 kts 85°
2026-05-06 11:15 44.58248 26.16110 2635 ft 165 kts 85°
2026-05-06 11:15 44.58373 26.17750 3288 ft 167 kts 86°
2026-05-06 11:16 44.58499 26.19415 3854 ft 175 kts 82°
2026-05-06 11:16 44.58979 26.21082 4271 ft 195 kts 52°
2026-05-06 11:16 44.60148 26.22197 4686 ft 217 kts 16°
2026-05-06 11:16 44.61744 26.22067 5042 ft 243 kts 335°
2026-05-06 11:17 44.63072 26.20458 5509 ft 263 kts 302°
2026-05-06 11:17 44.63983 26.18060 6141 ft 279 kts 295°
2026-05-06 11:17 44.64839 26.15518 6995 ft 286 kts 295°
2026-05-06 11:17 44.65704 26.12953 7940 ft 289 kts 295°
2026-05-06 11:18 44.66599 26.10334 8873 ft 292 kts 295°
2026-05-06 11:18 44.67456 26.07653 9784 ft 295 kts 293°
2026-05-06 11:18 44.68270 26.04983 10606 ft 301 kts 293°
2026-05-06 11:18 44.69145 26.02097 11118 ft 318 kts 293°
2026-05-06 11:19 44.70049 25.99135 11747 ft 329 kts 293°
2026-05-06 11:19 44.70970 25.96126 12589 ft 332 kts 293°
2026-05-06 11:19 44.71910 25.93061 13412 ft 336 kts 293°
2026-05-06 11:19 44.72860 25.89959 14190 ft 340 kts 293°
2026-05-06 11:20 44.73811 25.86854 14947 ft 345 kts 293°
2026-05-06 11:20 44.74795 25.83631 15709 ft 349 kts 293°
2026-05-06 11:20 44.75765 25.80454 16441 ft 352 kts 293°
2026-05-06 11:20 44.76757 25.77198 17163 ft 356 kts 292°
2026-05-06 11:21 44.77754 25.73923 17855 ft 360 kts 292°
2026-05-06 11:21 44.78759 25.70621 18540 ft 364 kts 292°
2026-05-06 11:21 44.79776 25.67273 19220 ft 367 kts 292°
2026-05-06 11:21 44.80808 25.63875 19885 ft 371 kts 292°
2026-05-06 11:22 44.81844 25.60458 20520 ft 374 kts 292°
2026-05-06 11:22 44.82900 25.56967 21161 ft 378 kts 292°
2026-05-06 11:22 44.83962 25.53450 21789 ft 381 kts 292°
2026-05-06 11:22 44.85015 25.49962 22384 ft 384 kts 292°
2026-05-06 11:23 44.86074 25.46440 22973 ft 387 kts 292°
2026-05-06 11:23 44.87153 25.42858 23547 ft 390 kts 292°
2026-05-06 11:23 44.88223 25.39297 24106 ft 392 kts 292°
2026-05-06 11:23 44.89315 25.35656 24648 ft 395 kts 291°
2026-05-06 11:24 44.90414 25.31984 25178 ft 398 kts 291°
2026-05-06 11:24 44.91518 25.28285 25711 ft 400 kts 291°
2026-05-06 11:24 44.92630 25.24565 26219 ft 402 kts 291°
2026-05-06 11:24 44.93741 25.20841 26697 ft 405 kts 291°
2026-05-06 11:25 44.94852 25.17107 27165 ft 407 kts 290°
2026-05-06 11:25 44.95976 25.13332 27623 ft 410 kts 290°
2026-05-06 11:25 44.97102 25.09545 28056 ft 412 kts 290°
2026-05-06 11:25 44.98235 25.05724 28475 ft 415 kts 290°
2026-05-06 11:26 44.99366 25.01876 28907 ft 416 kts 292°
2026-05-06 11:26 45.00482 24.98078 29620 ft 409 kts 292°
2026-05-06 11:26 45.01604 24.94301 30193 ft 407 kts 291°
2026-05-06 11:26 45.02719 24.90529 30580 ft 408 kts 291°
2026-05-06 11:27 45.03850 24.86686 30923 ft 411 kts 291°
2026-05-06 11:27 45.04971 24.82863 31277 ft 413 kts 291°
2026-05-06 11:27 45.06088 24.79056 31694 ft 412 kts 290°
2026-05-06 11:27 45.07205 24.75241 32129 ft 411 kts 290°
2026-05-06 11:28 45.08310 24.71461 32559 ft 410 kts 290°
2026-05-06 11:28 45.09426 24.67637 32970 ft 409 kts 290°
2026-05-06 11:28 45.10526 24.63868 33357 ft 408 kts 290°
2026-05-06 11:28 45.11633 24.60064 33765 ft 406 kts 290°
2026-05-06 11:29 45.12739 24.56257 34161 ft 404 kts 289°
2026-05-06 11:29 45.13828 24.52498 34509 ft 403 kts 289°
2026-05-06 11:29 45.14918 24.48734 34837 ft 402 kts 289°
2026-05-06 11:29 45.15996 24.45002 35162 ft 401 kts 289°
2026-05-06 11:30 45.17096 24.41189 35458 ft 401 kts 289°
2026-05-06 11:30 45.18166 24.37479 35754 ft 400 kts 289°
2026-05-06 11:30 45.19230 24.33790 35966 ft 400 kts 289°
2026-05-06 11:31 45.21381 24.26296 35975 ft 399 kts 289°
2026-05-06 11:31 45.23518 24.18839 35976 ft 398 kts 289°
2026-05-06 11:32 45.25628 24.11447 35978 ft 400 kts 289°
2026-05-06 11:32 45.27755 24.03975 35976 ft 400 kts 289°
2026-05-06 11:33 45.29876 23.96503 35978 ft 400 kts 289°
2026-05-06 11:33 45.31998 23.89000 35978 ft 400 kts 289°
2026-05-06 11:34 45.34106 23.81527 35976 ft 400 kts 289°
2026-05-06 11:34 45.36212 23.74037 35977 ft 400 kts 289°
2026-05-06 11:35 45.38322 23.66515 35978 ft 400 kts 289°
2026-05-06 11:35 45.40410 23.59049 35977 ft 400 kts 289°
2026-05-06 11:36 45.42510 23.51512 35977 ft 400 kts 289°
2026-05-06 11:36 45.44602 23.43977 35978 ft 400 kts 289°
2026-05-06 11:37 45.46684 23.36459 35977 ft 400 kts 289°
2026-05-06 11:37 45.48768 23.28906 35978 ft 400 kts 288°
2026-05-06 11:38 45.50844 23.21368 35977 ft 400 kts 288°
2026-05-06 11:38 45.52909 23.13842 35976 ft 400 kts 288°
2026-05-06 11:39 45.54976 23.06282 35977 ft 400 kts 288°
2026-05-06 11:39 45.57032 22.98722 35980 ft 398 kts 289°
2026-05-06 11:40 45.59057 22.91235 35978 ft 394 kts 290°
2026-05-06 11:40 45.61084 22.83733 35975 ft 395 kts 292°
2026-05-06 11:41 45.63105 22.76267 35975 ft 398 kts 293°
2026-05-06 11:41 45.65111 22.68847 35977 ft 398 kts 293°
2026-05-06 11:42 45.67136 22.61322 35978 ft 398 kts 293°
2026-05-06 11:42 45.69136 22.53850 35978 ft 399 kts 293°
2026-05-06 11:43 45.71144 22.46322 35976 ft 398 kts 292°
2026-05-06 11:43 45.73132 22.38845 35977 ft 398 kts 293°
2026-05-06 11:44 45.76133 22.27511 35978 ft 398 kts 292°
2026-05-06 11:44 45.78105 22.20035 35977 ft 399 kts 292°
2026-05-06 11:45 45.80096 22.12454 35977 ft 399 kts 292°
2026-05-06 11:45 45.82084 22.04869 36031 ft 401 kts 292°
2026-05-06 11:46 45.83081 22.01053 36294 ft 401 kts 292°
2026-05-06 11:46 45.84078 21.97237 36573 ft 400 kts 292°
2026-05-06 11:46 45.85065 21.93450 36781 ft 400 kts 292°
2026-05-06 11:46 45.86058 21.89632 36957 ft 402 kts 292°
2026-05-06 11:47 45.87037 21.85856 37123 ft 403 kts 292°
2026-05-06 11:47 45.88043 21.81979 37287 ft 404 kts 292°
2026-05-06 11:47 45.89041 21.78117 37448 ft 405 kts 292°
2026-05-06 11:47 45.90042 21.74258 37607 ft 406 kts 292°
2026-05-06 11:48 45.91058 21.70350 37758 ft 407 kts 292°
2026-05-06 11:48 45.92065 21.66476 37901 ft 407 kts 292°
2026-05-06 11:48 45.94094 21.58640 37974 ft 410 kts 292°
2026-05-06 11:49 45.96121 21.50785 37975 ft 410 kts 292°
2026-05-06 11:49 45.98136 21.42947 37975 ft 410 kts 292°
2026-05-06 11:50 46.00152 21.35076 37976 ft 409 kts 292°
2026-05-06 11:50 46.02169 21.27180 37976 ft 409 kts 291°
2026-05-06 11:51 46.04181 21.19269 37977 ft 410 kts 291°
2026-05-06 11:51 46.06185 21.11372 37979 ft 410 kts 291°
2026-05-06 11:52 46.08172 21.03485 37979 ft 407 kts 292°
2026-05-06 11:52 46.10130 20.95699 37978 ft 403 kts 293°
2026-05-06 11:53 46.12076 20.87938 37978 ft 401 kts 294°
2026-05-06 11:53 46.14003 20.80262 37977 ft 400 kts 294°
2026-05-06 11:54 46.15923 20.72570 37977 ft 400 kts 294°
2026-05-06 11:54 46.17912 20.64963 37977 ft 399 kts 296°
2026-05-06 11:55 46.19978 20.57367 37977 ft 400 kts 296°
2026-05-06 11:55 46.22020 20.49806 37977 ft 400 kts 296°
2026-05-06 11:56 46.24060 20.42209 37977 ft 400 kts 296°
2026-05-06 11:56 46.26088 20.34622 37976 ft 400 kts 295°
2026-05-06 11:57 46.28112 20.27023 37967 ft 400 kts 295°
2026-05-06 11:57 46.30136 20.19403 37954 ft 400 kts 295°
2026-05-06 11:58 46.32151 20.11792 37940 ft 400 kts 295°
2026-05-06 11:58 46.34157 20.04189 37931 ft 400 kts 295°
2026-05-06 11:59 46.36159 19.96570 37926 ft 400 kts 295°
2026-05-06 11:59 46.37964 19.88756 37923 ft 403 kts 289°
2026-05-06 12:00 46.39037 19.80657 37923 ft 408 kts 282°
2026-05-06 12:00 46.39333 19.72324 37922 ft 413 kts 274°
2026-05-06 12:01 46.39015 19.63841 37923 ft 415 kts 272°
2026-05-06 12:01 46.38634 19.55450 37922 ft 415 kts 272°
2026-05-06 12:02 46.38249 19.47016 37922 ft 415 kts 272°
2026-05-06 12:02 46.37861 19.38604 37922 ft 415 kts 272°
2026-05-06 12:03 46.37463 19.30118 37922 ft 415 kts 271°
2026-05-06 12:03 46.37064 19.21710 37922 ft 415 kts 271°
2026-05-06 12:04 46.36649 19.13264 37924 ft 414 kts 272°
2026-05-06 12:04 46.36225 19.04851 37927 ft 410 kts 274°
2026-05-06 12:05 46.35809 18.96587 37934 ft 407 kts 276°
2026-05-06 12:05 46.35403 18.88382 37939 ft 405 kts 276°
2026-05-06 12:06 46.34989 18.80104 37944 ft 405 kts 276°
2026-05-06 12:06 46.34570 18.71924 37946 ft 405 kts 276°
2026-05-06 12:07 46.34140 18.63699 37947 ft 405 kts 276°
2026-05-06 12:07 46.33702 18.55489 37947 ft 405 kts 276°
2026-05-06 12:08 46.33256 18.47228 37947 ft 405 kts 276°
2026-05-06 12:08 46.32808 18.39046 37947 ft 405 kts 276°
2026-05-06 12:09 46.32350 18.30803 37947 ft 406 kts 276°
2026-05-06 12:09 46.31891 18.22609 37947 ft 406 kts 275°
2026-05-06 12:10 46.31419 18.14336 37947 ft 406 kts 275°
2026-05-06 12:10 46.30943 18.06085 37947 ft 406 kts 275°
2026-05-06 12:11 46.30465 17.97899 37947 ft 406 kts 275°
2026-05-06 12:11 46.29975 17.89629 37947 ft 406 kts 275°
2026-05-06 12:12 46.29483 17.81403 37947 ft 406 kts 275°
2026-05-06 12:12 46.28987 17.73206 37947 ft 406 kts 275°
2026-05-06 12:13 46.28482 17.64976 37944 ft 406 kts 275°
2026-05-06 12:13 46.27969 17.56700 37933 ft 406 kts 275°
2026-05-06 12:14 46.27456 17.48540 37919 ft 406 kts 275°
2026-05-06 12:14 46.26934 17.40319 37907 ft 406 kts 275°
2026-05-06 12:15 46.26405 17.32080 37900 ft 406 kts 275°
2026-05-06 12:15 46.25870 17.23847 37896 ft 407 kts 275°
2026-05-06 12:16 46.25328 17.15599 37894 ft 407 kts 275°
2026-05-06 12:16 46.24782 17.07384 37894 ft 407 kts 275°
2026-05-06 12:17 46.24229 16.99198 37895 ft 406 kts 275°
2026-05-06 12:17 46.23496 16.90950 37895 ft 407 kts 274°
2026-05-06 12:18 46.22671 16.82810 37895 ft 405 kts 274°
2026-05-06 12:18 46.21844 16.74668 37895 ft 402 kts 275°
2026-05-06 12:19 46.21017 16.66530 37897 ft 402 kts 275°
2026-05-06 12:19 46.20181 16.58376 37904 ft 402 kts 275°
2026-05-06 12:20 46.19339 16.50242 37912 ft 402 kts 275°
2026-05-06 12:20 46.18500 16.42204 37917 ft 402 kts 275°
2026-05-06 12:21 46.17646 16.34089 37920 ft 402 kts 274°
2026-05-06 12:21 46.16785 16.25953 37920 ft 403 kts 274°
2026-05-06 12:22 46.15915 16.17800 37920 ft 403 kts 274°
2026-05-06 12:22 46.15045 16.09708 37920 ft 403 kts 274°
2026-05-06 12:23 46.14169 16.01606 37920 ft 403 kts 274°
2026-05-06 12:23 46.13281 15.93455 37920 ft 403 kts 274°
2026-05-06 12:24 46.12396 15.85378 37920 ft 403 kts 274°
2026-05-06 12:24 46.11492 15.77196 37920 ft 403 kts 274°
2026-05-06 12:25 46.10587 15.69049 37921 ft 404 kts 274°
2026-05-06 12:25 46.09669 15.60846 37921 ft 403 kts 274°
2026-05-06 12:26 46.08744 15.52638 37921 ft 403 kts 274°
2026-05-06 12:26 46.07817 15.44464 37921 ft 403 kts 274°
2026-05-06 12:27 46.06887 15.36311 37921 ft 404 kts 274°
2026-05-06 12:27 46.05943 15.28097 37921 ft 404 kts 273°
2026-05-06 12:28 46.04992 15.19878 37921 ft 404 kts 273°
2026-05-06 12:28 46.04039 15.11698 37920 ft 404 kts 273°
2026-05-06 12:29 46.03078 15.03468 37921 ft 403 kts 273°
2026-05-06 12:29 46.02118 14.95317 37921 ft 401 kts 272°
2026-05-06 12:30 46.01162 14.87248 37921 ft 400 kts 272°
2026-05-06 12:30 46.00196 14.79190 37920 ft 399 kts 272°
2026-05-06 12:31 45.99224 14.71115 37921 ft 399 kts 272°
2026-05-06 12:31 45.98249 14.63056 37921 ft 399 kts 272°
2026-05-06 12:32 45.97274 14.55037 37921 ft 398 kts 272°
2026-05-06 12:32 45.96293 14.47027 37921 ft 399 kts 272°
2026-05-06 12:33 45.95313 14.39065 37921 ft 399 kts 272°
2026-05-06 12:33 45.94320 14.31047 37921 ft 400 kts 271°
2026-05-06 12:34 45.93323 14.23051 37920 ft 400 kts 271°
2026-05-06 12:34 45.92317 14.15030 37920 ft 400 kts 271°
2026-05-06 12:35 45.91311 14.07057 37920 ft 400 kts 271°
2026-05-06 12:35 45.90295 13.99049 37920 ft 400 kts 271°
2026-05-06 12:36 45.89276 13.91060 37918 ft 400 kts 271°
2026-05-06 12:36 45.88246 13.83033 37920 ft 400 kts 271°
2026-05-06 12:37 45.87212 13.75028 37920 ft 400 kts 271°
2026-05-06 12:37 45.86172 13.67033 37920 ft 400 kts 271°
2026-05-06 12:38 45.85173 13.59071 37920 ft 397 kts 273°
2026-05-06 12:38 45.84531 13.51122 37920 ft 393 kts 275°
2026-05-06 12:39 45.83931 13.43152 37920 ft 394 kts 275°
2026-05-06 12:39 45.83326 13.35187 37919 ft 394 kts 275°
2026-05-06 12:40 45.82715 13.27212 37915 ft 395 kts 275°
2026-05-06 12:40 45.82094 13.19191 37908 ft 395 kts 275°
2026-05-06 12:41 45.81478 13.11232 37902 ft 393 kts 274°
2026-05-06 12:41 45.80856 13.03303 37897 ft 391 kts 272°
2026-05-06 12:42 45.80230 12.95409 37895 ft 390 kts 271°
2026-05-06 12:42 45.79589 12.87502 37894 ft 390 kts 271°
2026-05-06 12:43 45.78946 12.79631 37894 ft 390 kts 271°
2026-05-06 12:43 45.78304 12.71792 37894 ft 389 kts 271°
2026-05-06 12:44 45.77655 12.63942 37894 ft 390 kts 271°
2026-05-06 12:44 45.77003 12.56109 37893 ft 389 kts 271°
2026-05-06 12:45 45.76340 12.48200 37893 ft 390 kts 271°
2026-05-06 12:46 45.75345 12.36461 37894 ft 389 kts 271°
2026-05-06 12:46 45.74673 12.28619 37894 ft 390 kts 271°
2026-05-06 12:47 45.73995 12.20758 37894 ft 390 kts 271°
2026-05-06 12:47 45.73312 12.12909 37896 ft 390 kts 271°
2026-05-06 12:48 45.72620 12.05020 37902 ft 390 kts 271°
2026-05-06 12:48 45.71930 11.97228 37910 ft 390 kts 271°
2026-05-06 12:49 45.71346 11.90669 37914 ft 390 kts 271°
2026-05-06 12:49 45.70527 11.81554 37916 ft 390 kts 271°
2026-05-06 12:50 45.69820 11.73748 37915 ft 389 kts 271°
2026-05-06 12:50 45.69104 11.65904 37911 ft 390 kts 271°
2026-05-06 12:51 45.68381 11.58040 37907 ft 390 kts 271°
2026-05-06 12:51 45.67657 11.50227 37902 ft 390 kts 271°
2026-05-06 12:52 45.66924 11.42382 37896 ft 390 kts 271°
2026-05-06 12:52 45.66188 11.34561 37889 ft 390 kts 270°
2026-05-06 12:53 45.65446 11.26745 37881 ft 390 kts 270°
2026-05-06 12:53 45.64699 11.18920 37874 ft 390 kts 270°
2026-05-06 12:54 45.63944 11.11073 37869 ft 391 kts 270°
2026-05-06 12:54 45.63180 11.03201 37868 ft 391 kts 270°
2026-05-06 12:55 45.62425 10.95400 37868 ft 390 kts 269°
2026-05-06 12:55 45.61655 10.87540 37868 ft 389 kts 268°
2026-05-06 12:56 45.60890 10.79804 37867 ft 389 kts 268°
2026-05-06 12:56 45.60103 10.71951 37866 ft 388 kts 268°
2026-05-06 12:57 45.59313 10.64144 37867 ft 388 kts 268°
2026-05-06 12:57 45.58525 10.56372 37866 ft 388 kts 268°
2026-05-06 12:58 45.57731 10.48580 37866 ft 388 kts 268°
2026-05-06 12:58 45.56928 10.40765 37867 ft 388 kts 268°
2026-05-06 12:59 45.56122 10.32958 37869 ft 388 kts 267°
2026-05-06 12:59 45.55322 10.25241 37871 ft 388 kts 267°
2026-05-06 13:00 45.54511 10.17494 37887 ft 388 kts 267°
2026-05-06 13:00 45.53688 10.09698 37913 ft 389 kts 267°
2026-05-06 13:01 45.52873 10.02009 37943 ft 389 kts 267°
2026-05-06 13:01 45.52041 9.94234 37946 ft 388 kts 267°
2026-05-06 13:02 45.51203 9.86450 37929 ft 388 kts 267°
2026-05-06 13:02 45.50363 9.78683 37902 ft 389 kts 267°
2026-05-06 13:03 45.49515 9.70903 37882 ft 389 kts 267°
2026-05-06 13:03 45.48662 9.63124 37874 ft 389 kts 267°
2026-05-06 13:04 45.47796 9.55272 37869 ft 388 kts 267°
2026-05-06 13:04 45.46931 9.47500 37864 ft 389 kts 267°
2026-05-06 13:05 45.46071 9.39809 37858 ft 388 kts 267°
2026-05-06 13:05 45.45198 9.32052 37850 ft 389 kts 266°
2026-05-06 13:06 45.44314 9.24249 37843 ft 389 kts 266°
2026-05-06 13:06 45.43433 9.16518 37841 ft 389 kts 266°
2026-05-06 13:07 45.42547 9.08790 37839 ft 389 kts 266°
2026-05-06 13:07 45.41654 9.01005 37836 ft 390 kts 265°
2026-05-06 13:08 45.40756 8.93255 37829 ft 391 kts 265°
2026-05-06 13:08 45.39840 8.85413 37823 ft 393 kts 264°
2026-05-06 13:09 45.38919 8.77620 37817 ft 393 kts 264°
2026-05-06 13:09 45.37997 8.69851 37814 ft 394 kts 264°
2026-05-06 13:10 45.37071 8.62078 37813 ft 393 kts 264°
2026-05-06 13:10 45.36131 8.54225 37812 ft 394 kts 264°
2026-05-06 13:11 45.35192 8.46428 37813 ft 394 kts 264°
2026-05-06 13:11 45.34241 8.38583 37812 ft 394 kts 264°
2026-05-06 13:12 45.33286 8.30745 37813 ft 394 kts 264°
2026-05-06 13:12 45.32333 8.22974 37812 ft 394 kts 263°
2026-05-06 13:13 45.31367 8.15149 37812 ft 394 kts 264°
2026-05-06 13:13 45.30399 8.07341 37812 ft 394 kts 263°
2026-05-06 13:14 45.29425 7.99543 37812 ft 394 kts 264°
2026-05-06 13:14 45.28444 7.91722 37813 ft 394 kts 263°
2026-05-06 13:15 45.27459 7.83919 37813 ft 394 kts 263°
2026-05-06 13:15 45.26634 7.77421 37813 ft 394 kts 263°
2026-05-06 13:16 45.25469 7.68288 37813 ft 394 kts 263°
2026-05-06 13:16 45.24464 7.60470 37812 ft 394 kts 264°
2026-05-06 13:17 45.23462 7.52714 37813 ft 394 kts 263°
2026-05-06 13:17 45.22457 7.44971 37813 ft 394 kts 263°
2026-05-06 13:18 45.21437 7.37169 37813 ft 394 kts 263°
2026-05-06 13:18 45.20406 7.29334 37813 ft 395 kts 263°
2026-05-06 13:19 45.19756 7.21544 37812 ft 391 kts 271°
2026-05-06 13:19 45.20089 7.13730 37813 ft 388 kts 280°
2026-05-06 13:20 45.21377 7.06223 37814 ft 387 kts 289°
2026-05-06 13:20 45.23380 6.98960 37534 ft 388 kts 291°
2026-05-06 13:20 45.24419 6.95346 37279 ft 388 kts 291°
2026-05-06 13:21 45.25464 6.91709 37024 ft 389 kts 291°
2026-05-06 13:21 45.26504 6.88079 36840 ft 388 kts 291°
2026-05-06 13:21 45.27526 6.84510 36835 ft 388 kts 291°
2026-05-06 13:22 45.29610 6.77220 36835 ft 389 kts 291°
2026-05-06 13:22 45.31675 6.69977 36837 ft 389 kts 291°
2026-05-06 13:23 45.33748 6.62679 36844 ft 389 kts 291°
2026-05-06 13:23 45.35805 6.55417 36859 ft 389 kts 291°
2026-05-06 13:24 45.37861 6.48133 36879 ft 389 kts 291°
2026-05-06 13:24 45.39610 6.40674 36900 ft 388 kts 285°
2026-05-06 13:25 45.41013 6.33126 36914 ft 388 kts 284°
2026-05-06 13:25 45.42397 6.25571 36918 ft 388 kts 284°
2026-05-06 13:26 45.43788 6.17944 36920 ft 388 kts 284°
2026-05-06 13:26 45.45163 6.10376 36921 ft 388 kts 284°
2026-05-06 13:27 45.46535 6.02786 36921 ft 388 kts 284°
2026-05-06 13:27 45.47908 5.95181 36921 ft 388 kts 285°
2026-05-06 13:28 45.49359 5.87635 36921 ft 388 kts 285°
2026-05-06 13:28 45.50827 5.80038 36921 ft 388 kts 285°
2026-05-06 13:29 45.52273 5.72497 36921 ft 388 kts 285°
2026-05-06 13:29 45.53719 5.64912 36927 ft 388 kts 285°
2026-05-06 13:30 45.55161 5.57305 36940 ft 388 kts 285°
2026-05-06 13:30 45.56560 5.49744 36956 ft 388 kts 284°
2026-05-06 13:31 45.57658 5.43343 36965 ft 388 kts 284°
2026-05-06 13:31 45.59171 5.34451 36964 ft 388 kts 284°
2026-05-06 13:32 45.60473 5.26792 36951 ft 388 kts 284°
2026-05-06 13:32 45.61768 5.19151 36937 ft 388 kts 284°
2026-05-06 13:33 45.63060 5.11497 36929 ft 388 kts 284°
2026-05-06 13:33 45.64337 5.03891 36925 ft 388 kts 284°
2026-05-06 13:34 45.65617 4.96237 36929 ft 383 kts 284°
2026-05-06 13:34 45.66852 4.88819 36938 ft 374 kts 284°
2026-05-06 13:35 45.68065 4.81528 36952 ft 365 kts 283°
2026-05-06 13:35 45.69053 4.75564 36962 ft 360 kts 283°
2026-05-06 13:36 45.70409 4.67331 36962 ft 359 kts 283°
2026-05-06 13:36 45.71571 4.60239 36948 ft 359 kts 283°
2026-05-06 13:37 45.72730 4.53139 36927 ft 359 kts 283°
2026-05-06 13:37 45.73886 4.46025 36910 ft 359 kts 283°
2026-05-06 13:38 45.75033 4.38941 36901 ft 359 kts 283°
2026-05-06 13:38 45.76170 4.31877 36898 ft 359 kts 283°
2026-05-06 13:39 45.77305 4.24808 36896 ft 359 kts 283°
2026-05-06 13:39 45.78445 4.17670 36895 ft 359 kts 283°
2026-05-06 13:40 45.79572 4.10589 36895 ft 359 kts 283°
2026-05-06 13:40 45.80706 4.03435 36895 ft 359 kts 283°
2026-05-06 13:41 45.81649 3.97455 36897 ft 359 kts 283°
2026-05-06 13:41 45.82978 3.88997 36908 ft 370 kts 283°
2026-05-06 13:42 45.83965 3.82687 36916 ft 378 kts 283°
2026-05-06 13:42 45.85362 3.73704 36927 ft 384 kts 283°
2026-05-06 13:43 45.86549 3.66030 36934 ft 385 kts 283°
2026-05-06 13:43 45.87748 3.58240 36940 ft 385 kts 283°
2026-05-06 13:44 45.88737 3.51914 36942 ft 385 kts 283°
2026-05-06 13:44 45.90183 3.42981 36931 ft 385 kts 283°
2026-05-06 13:45 45.91417 3.35299 36912 ft 385 kts 283°
2026-05-06 13:45 45.93259 3.23739 36885 ft 385 kts 283°
2026-05-06 13:46 45.94488 3.15977 36877 ft 385 kts 283°
2026-05-06 13:46 45.95703 3.08265 36873 ft 385 kts 282°
2026-05-06 13:47 45.96925 3.00491 36870 ft 385 kts 282°
2026-05-06 13:47 45.97933 2.94030 36868 ft 386 kts 281°
2026-05-06 13:48 45.99101 2.84820 36867 ft 387 kts 276°
2026-05-06 13:48 45.99513 2.76886 36868 ft 386 kts 271°
2026-05-06 13:49 45.99453 2.70228 36868 ft 386 kts 268°
2026-05-06 13:49 45.99232 2.62236 36867 ft 386 kts 268°
2026-05-06 13:50 45.98959 2.52979 36867 ft 386 kts 268°
2026-05-06 13:50 45.98718 2.45094 36867 ft 386 kts 268°
2026-05-06 13:51 45.98468 2.37159 36867 ft 386 kts 268°
2026-05-06 13:51 45.98212 2.29264 36874 ft 386 kts 267°
2026-05-06 13:52 45.97996 2.22708 36882 ft 386 kts 267°
2026-05-06 13:52 45.97686 2.13477 36900 ft 386 kts 267°
2026-05-06 13:53 45.97412 2.05556 36910 ft 386 kts 267°
2026-05-06 13:53 45.97135 1.97702 36911 ft 386 kts 267°
2026-05-06 13:54 45.96744 1.89791 36906 ft 386 kts 264°
2026-05-06 13:54 45.95862 1.82021 36907 ft 388 kts 259°
2026-05-06 13:55 45.94784 1.75641 36934 ft 388 kts 258°
2026-05-06 13:55 45.93435 1.67954 36959 ft 388 kts 258°
2026-05-06 13:56 45.91842 1.58972 36973 ft 388 kts 258°
2026-05-06 13:56 45.90691 1.52532 36978 ft 388 kts 258°
2026-05-06 13:57 45.89319 1.44889 36981 ft 388 kts 258°
2026-05-06 13:57 45.87715 1.36009 36982 ft 388 kts 258°
2026-05-06 13:58 45.86333 1.28391 36984 ft 388 kts 257°
2026-05-06 13:58 45.84941 1.20753 36983 ft 388 kts 257°
2026-05-06 13:59 45.83775 1.14373 36700 ft 388 kts 256°
2026-05-06 13:59 45.82978 1.10625 36298 ft 383 kts 253°
2026-05-06 13:59 45.82032 1.06955 35657 ft 382 kts 250°
2026-05-06 14:00 45.80937 1.03363 34940 ft 384 kts 247°
2026-05-06 14:00 45.79706 0.99883 34155 ft 386 kts 244°
2026-05-06 14:00 45.78311 0.96454 33308 ft 390 kts 240°
2026-05-06 14:00 45.76762 0.93117 32428 ft 395 kts 238°
2026-05-06 14:01 45.75093 0.89812 31536 ft 398 kts 237°
2026-05-06 14:01 45.73439 0.86545 30653 ft 400 kts 237°
2026-05-06 14:01 45.71783 0.83283 29745 ft 402 kts 237°
2026-05-06 14:01 45.70110 0.79995 28958 ft 401 kts 237°
2026-05-06 14:02 45.67878 0.75625 28211 ft 393 kts 237°
2026-05-06 14:02 45.66772 0.73464 27842 ft 389 kts 237°
2026-05-06 14:02 45.64605 0.69229 27084 ft 383 kts 237°
2026-05-06 14:02 45.63542 0.67153 26726 ft 380 kts 237°
2026-05-06 14:03 45.61938 0.64026 26199 ft 375 kts 237°
2026-05-06 14:03 45.60347 0.60928 25697 ft 369 kts 237°
2026-05-06 14:03 45.58788 0.57895 25162 ft 366 kts 237°
2026-05-06 14:03 45.56714 0.53864 24451 ft 361 kts 237°
2026-05-06 14:04 45.55679 0.51855 24098 ft 359 kts 237°
2026-05-06 14:04 45.54137 0.48865 23572 ft 355 kts 237°
2026-05-06 14:04 45.52623 0.45931 23056 ft 352 kts 237°
2026-05-06 14:04 45.51108 0.43000 22542 ft 349 kts 237°
2026-05-06 14:05 45.49625 0.40133 22037 ft 346 kts 237°
2026-05-06 14:05 45.48132 0.37249 21523 ft 343 kts 237°
2026-05-06 14:05 45.46663 0.34417 21016 ft 340 kts 237°
2026-05-06 14:05 45.45219 0.31635 20511 ft 338 kts 237°
2026-05-06 14:06 45.43752 0.28809 19999 ft 335 kts 237°
2026-05-06 14:06 45.42321 0.26055 19406 ft 336 kts 237°
2026-05-06 14:06 45.40881 0.23290 18778 ft 336 kts 237°
2026-05-06 14:06 45.39433 0.20514 18153 ft 337 kts 237°
2026-05-06 14:07 45.37986 0.17745 17530 ft 336 kts 237°
2026-05-06 14:07 45.36546 0.14989 16910 ft 336 kts 237°
2026-05-06 14:07 45.35107 0.12232 16315 ft 334 kts 237°
2026-05-06 14:07 45.33698 0.09488 15833 ft 329 kts 237°
2026-05-06 14:08 45.32296 0.06749 15343 ft 324 kts 237°
2026-05-06 14:08 45.30938 0.04099 14861 ft 321 kts 237°
2026-05-06 14:08 45.29562 0.01419 14369 ft 318 kts 237°
2026-05-06 14:08 45.28209 -0.01212 13886 ft 315 kts 237°
2026-05-06 14:09 45.26875 -0.03805 13410 ft 312 kts 237°
2026-05-06 14:09 45.25555 -0.06371 12930 ft 309 kts 237°
2026-05-06 14:09 45.24245 -0.08912 12453 ft 307 kts 237°
2026-05-06 14:09 45.22947 -0.11429 11988 ft 304 kts 237°
2026-05-06 14:10 45.21659 -0.13921 11522 ft 301 kts 237°
2026-05-06 14:10 45.20401 -0.16356 11038 ft 300 kts 237°
2026-05-06 14:10 45.19132 -0.18807 10556 ft 299 kts 237°
2026-05-06 14:10 45.17873 -0.21235 10337 ft 287 kts 237°
2026-05-06 14:11 45.16586 -0.23495 10183 ft 275 kts 233°
2026-05-06 14:11 45.15267 -0.25479 10038 ft 264 kts 230°
2026-05-06 14:11 45.13932 -0.27407 9691 ft 262 kts 230°
2026-05-06 14:11 45.12639 -0.29274 9380 ft 257 kts 230°
2026-05-06 14:12 45.11387 -0.31076 9289 ft 249 kts 231°
2026-05-06 14:12 45.10119 -0.32821 9125 ft 247 kts 223°
2026-05-06 14:12 45.08513 -0.33904 8874 ft 253 kts 198°
2026-05-06 14:12 45.06718 -0.34266 8538 ft 255 kts 192°
2026-05-06 14:13 45.04971 -0.34489 8214 ft 254 kts 191°
2026-05-06 14:13 45.03173 -0.34707 7896 ft 252 kts 190°
2026-05-06 14:13 45.01421 -0.34931 7587 ft 250 kts 191°
2026-05-06 14:13 44.99652 -0.35169 7273 ft 249 kts 190°
2026-05-06 14:14 44.97901 -0.35412 6966 ft 248 kts 190°
2026-05-06 14:14 44.96126 -0.35661 6658 ft 246 kts 190°
2026-05-06 14:14 44.94405 -0.35904 6363 ft 245 kts 190°
2026-05-06 14:14 44.92665 -0.36150 6069 ft 243 kts 190°
2026-05-06 14:15 44.90928 -0.36395 5776 ft 242 kts 190°
2026-05-06 14:15 44.89206 -0.36639 5488 ft 240 kts 190°
2026-05-06 14:15 44.87509 -0.36880 5207 ft 239 kts 189°
2026-05-06 14:15 44.85826 -0.37143 4927 ft 237 kts 193°
2026-05-06 14:16 44.84201 -0.37624 4651 ft 233 kts 199°
2026-05-06 14:16 44.82655 -0.38259 4385 ft 232 kts 201°
2026-05-06 14:16 44.81138 -0.38911 4123 ft 230 kts 201°
2026-05-06 14:16 44.79562 -0.39588 3852 ft 229 kts 201°
2026-05-06 14:17 44.78053 -0.40280 3742 ft 217 kts 211°
2026-05-06 14:17 44.77029 -0.41662 3638 ft 205 kts 251°
2026-05-06 14:17 44.76867 -0.43552 3391 ft 200 kts 282°
2026-05-06 14:17 44.77240 -0.45398 3171 ft 198 kts 292°
2026-05-06 14:18 44.77723 -0.47249 3030 ft 190 kts 291°
2026-05-06 14:18 44.78131 -0.48944 3016 ft 179 kts 290°
2026-05-06 14:18 44.78503 -0.50625 2922 ft 180 kts 289°
2026-05-06 14:18 44.78852 -0.52283 2776 ft 170 kts 289°
2026-05-06 14:19 44.79184 -0.53894 2516 ft 165 kts 289°
2026-05-06 14:19 44.79511 -0.55479 2264 ft 161 kts 289°
2026-05-06 14:19 44.79821 -0.56980 2021 ft 150 kts 289°
2026-05-06 14:19 44.80106 -0.58356 1804 ft 139 kts 289°
2026-05-06 14:20 44.80375 -0.59654 1632 ft 129 kts 289°
2026-05-06 14:20 44.80638 -0.60914 1466 ft 128 kts 289°
2026-05-06 14:20 44.80895 -0.62140 1303 ft 128 kts 289°
2026-05-06 14:20 44.81148 -0.63361 1136 ft 127 kts 289°
2026-05-06 14:21 44.81406 -0.64619 972 ft 129 kts 289°
2026-05-06 14:21 44.81672 -0.65882 799 ft 133 kts 289°
2026-05-06 14:21 44.81951 -0.67173 626 ft 135 kts 288°
2026-05-06 14:21 44.82219 -0.68464 417 ft 134 kts 288°
2026-05-06 14:22 44.82482 -0.69735 223 ft 131 kts 289°
2026-05-06 14:22 44.82737 -0.70915 165 ft 108 kts 287°
2026-05-06 14:22 44.82899 -0.71676 163 ft 53 kts 287°
2026-05-06 14:22 44.82982 -0.72095 160 ft 22 kts 287°
2026-05-06 14:23 44.83087 -0.72115 160 ft 16 kts 15°
2026-05-06 14:23 44.83168 -0.72025 160 ft 16 kts 97°
2026-05-06 14:23 44.83140 -0.71867 160 ft 16 kts 111°
2026-05-06 14:23 44.83103 -0.71716 162 ft 15 kts 106°
2026-05-06 14:24 44.83073 -0.71571 163 ft 15 kts 106°
2026-05-06 14:24 44.83042 -0.71422 164 ft 15 kts 107°
2026-05-06 14:24 44.83003 -0.71249 166 ft 20 kts 106°
2026-05-06 14:24 44.82956 -0.71021 164 ft 25 kts 105°
2026-05-06 14:25 44.82941 -0.70814 160 ft 18 kts 41°
2026-05-06 14:25 44.83053 -0.70703 157 ft 20 kts 50°
2026-05-06 14:25 44.83086 -0.70607 156 ft 8 kts 129°
2026-05-06 14:25 44.83041 -0.70546 156 ft 2 kts 136°
2026-05-06 14:26 44.83040 -0.70546 156 ft 0 kts 136°